Sedona, AZ

4:21 AM MST on December 06, 2019 (GMT -0700)
Sedona

Weather History for KSEZ - November, 2019

Change the Weather History Date:

Saturday, November 16, 2019

  Actual Average Record
Temperature  
Mean Temperature 60 °F -  
Max Temperature 71 °F 64 °F 71 °F (2012)
Min Temperature 50 °F 36 °F 32 °F (2015)
Degree Days  
Heating Degree Days 4    
Growing Degree Days 10 (Base 50)    
Moisture  
Dew Point 27 °F    
Average Humidity 30    
Maximum Humidity 43    
Minimum Humidity 20    
Precipitation  
Precipitation 0.00 in - - ()
Sea Level Pressure  
Sea Level Pressure 30.14 in    
Wind  
Wind Speed 8 mph (NE)    
Max Wind Speed 16 mph    
Max Gust Speed 20 mph    
Visibility 10 miles    
Events      
Averages and records for this station are not official NWS values.
T = Trace of Precipitation, MM = Missing Value Source: NWS Daily Summary

Daily Weather History Graph

Daily Weather History Graph

Search for Another Location

Airport or City:

Astronomy

Nov. 16, 2019 Rise Set
Actual Time 7:02 AM MST 5:21 PM MST
Civil Twilight 6:35 AM MST 5:48 PM MST
Nautical Twilight 6:04 AM MST 6:18 PM MST
Astronomical Twilight 5:34 AM MST 6:48 PM MST
Moon 9:01 PM MST (11/16) 10:55 AM MST (11/16)
Length of Visible Light 11h 13m
Length of Day
10h 19m
Waning Gibbous, 82% of the Moon is Illuminated
Nov 16
Waning Gibbous
Nov 19
Last Quarter
Nov 26
New
Dec 3
First Quarter
Dec 11
Full

Hourly Weather History & Observations

Time (MST) Temp. Dew Point Humidity Pressure Visibility Wind Dir Wind Speed Gust Speed Precip Events Conditions
12:15 AM 53.6 °F 26.6 °F 35% 30.15 in 10.0 mi NNE 8.1 mph - N/A   Clear
12:35 AM 53.6 °F 28.4 °F 38% 30.15 in 10.0 mi NNE 11.5 mph - N/A   Clear
1:15 AM 53.6 °F 28.4 °F 38% 30.15 in 10.0 mi NNE 10.4 mph - N/A   Clear
1:35 AM 53.6 °F 28.4 °F 38% 30.15 in 10.0 mi NNE 9.2 mph - N/A   Clear
1:55 AM 53.6 °F 28.4 °F 38% 30.15 in 10.0 mi NNE 9.2 mph - N/A   Clear
2:15 AM 51.8 °F 26.6 °F 38% 30.16 in 10.0 mi NNE 10.4 mph - N/A   Clear
2:35 AM 51.8 °F 28.4 °F 41% 30.15 in 10.0 mi NNE 10.4 mph - N/A   Clear
2:55 AM 53.6 °F 28.4 °F 38% 30.15 in 10.0 mi NNE 12.7 mph - N/A   Clear
3:15 AM 51.8 °F 26.6 °F 38% 30.15 in 10.0 mi NNE 11.5 mph - N/A   Clear
3:35 AM 53.6 °F 26.6 °F 35% 30.15 in 10.0 mi NNE 11.5 mph - N/A   Clear
3:55 AM 51.8 °F 28.4 °F 41% 30.15 in 10.0 mi NE 9.2 mph - N/A   Clear
4:15 AM 51.8 °F 28.4 °F 41% 30.15 in 10.0 mi NNE 8.1 mph - N/A   Clear
4:55 AM 51.8 °F 28.4 °F 41% 30.15 in 10.0 mi NE 12.7 mph - N/A   Clear
5:15 AM 51.8 °F 28.4 °F 41% 30.15 in 10.0 mi NNE 10.4 mph - N/A   Clear
5:35 AM 51.8 °F 28.4 °F 41% 30.14 in 10.0 mi NNE 13.8 mph - N/A   Clear
5:55 AM 51.8 °F 28.4 °F 41% 30.14 in 10.0 mi NNE 11.5 mph - N/A   Clear
6:15 AM 51.8 °F 28.4 °F 41% 30.14 in 10.0 mi NE 10.4 mph - N/A   Clear
6:35 AM 51.8 °F 28.4 °F 41% 30.15 in 10.0 mi NE 13.8 mph - N/A   Clear
6:55 AM 50.0 °F 28.4 °F 43% 30.15 in 10.0 mi NNE 10.4 mph - N/A   Clear
7:15 AM 50.0 °F 28.4 °F 43% 30.16 in 10.0 mi NNE 11.5 mph - N/A   Clear
7:35 AM 51.8 °F 28.4 °F 41% 30.17 in 10.0 mi NNE 13.8 mph - N/A   Clear
7:55 AM 53.6 °F 28.4 °F 38% 30.17 in 10.0 mi NNE 10.4 mph - N/A   Clear
8:15 AM 51.8 °F 28.4 °F 41% 30.17 in 10.0 mi NE 6.9 mph - N/A   Clear
8:35 AM 51.8 °F 28.4 °F 41% 30.18 in 10.0 mi ENE 9.2 mph - N/A   Clear
8:55 AM 53.6 °F 28.4 °F 38% 30.18 in 10.0 mi Calm Calm - N/A   Clear
9:15 AM 55.4 °F 28.4 °F 36% 30.18 in 10.0 mi Calm Calm - N/A   Clear
9:35 AM 57.2 °F 28.4 °F 33% 30.18 in 10.0 mi Calm Calm - N/A   Clear
9:55 AM 57.2 °F 28.4 °F 33% 30.18 in 10.0 mi Calm Calm - N/A   Clear
10:15 AM 59.0 °F 30.2 °F 34% 30.18 in 10.0 mi Calm Calm - N/A   Clear
10:35 AM 62.6 °F 30.2 °F 30% 30.18 in 10.0 mi South 3.5 mph - N/A   Clear
10:55 AM 60.8 °F 30.2 °F 31% 30.17 in 10.0 mi Calm Calm - N/A   Clear
11:15 AM 62.6 °F 28.4 °F 27% 30.17 in 10.0 mi Calm Calm - N/A   Clear
11:35 AM 64.4 °F 30.2 °F 28% 30.16 in 10.0 mi Calm Calm - N/A   Clear
11:55 AM 64.4 °F 30.2 °F 28% 30.15 in 10.0 mi WSW 3.5 mph - N/A   Clear
12:15 PM 64.4 °F 30.2 °F 28% 30.14 in 10.0 mi SE 5.8 mph - N/A   Clear
12:35 PM 66.2 °F 30.2 °F 26% 30.13 in 10.0 mi South 4.6 mph - N/A   Clear
12:55 PM 68.0 °F 28.4 °F 23% 30.12 in 10.0 mi South 4.6 mph - N/A   Clear
1:15 PM 68.0 °F 28.4 °F 23% 30.11 in 10.0 mi South 3.5 mph - N/A   Clear
1:35 PM 69.8 °F 28.4 °F 21% 30.10 in 10.0 mi South 5.8 mph - N/A   Clear
1:55 PM 69.8 °F 28.4 °F 21% 30.10 in 10.0 mi WSW 4.6 mph - N/A   Clear
2:35 PM 69.8 °F 28.4 °F 21% 30.09 in 10.0 mi South 4.6 mph - N/A   Clear
2:55 PM 69.8 °F 28.4 °F 21% 30.08 in 10.0 mi Calm Calm - N/A   Clear
3:15 PM 69.8 °F 28.4 °F 21% 30.08 in 10.0 mi Calm Calm - N/A   Clear
3:35 PM 71.6 °F 28.4 °F 20% 30.08 in 10.0 mi SSE 3.5 mph - N/A   Clear
3:55 PM 71.6 °F 28.4 °F 20% 30.08 in 10.0 mi South 5.8 mph - N/A   Clear
4:15 PM 69.8 °F 26.6 °F 20% 30.08 in 10.0 mi Calm Calm - N/A   Clear
4:35 PM 69.8 °F 26.6 °F 20% 30.08 in 10.0 mi Calm Calm - N/A   Clear
4:55 PM 68.0 °F 26.6 °F 21% 30.09 in 10.0 mi Calm Calm - N/A   Clear
5:15 PM 68.0 °F 26.6 °F 21% 30.10 in 10.0 mi Calm Calm - N/A   Clear
5:35 PM 64.4 °F 28.4 °F 26% 30.10 in 10.0 mi Calm Calm - N/A   Clear
5:55 PM 64.4 °F 28.4 °F 26% 30.11 in 10.0 mi Calm Calm - N/A   Clear
6:15 PM 64.4 °F 26.6 °F 24% 30.11 in 10.0 mi NE 12.7 mph - N/A   Clear
6:35 PM 62.6 °F 24.8 °F 24% 30.13 in 10.0 mi NE 11.5 mph - N/A   Clear
6:55 PM 62.6 °F 23.0 °F 22% 30.13 in 10.0 mi NE 12.7 mph - N/A   Clear
7:15 PM 62.6 °F 23.0 °F 22% 30.14 in 10.0 mi NE 12.7 mph - N/A   Clear
7:35 PM 62.6 °F 23.0 °F 22% 30.15 in 10.0 mi NE 11.5 mph 17.3 mph N/A   Clear
7:55 PM 60.8 °F 23.0 °F 23% 30.15 in 10.0 mi NNE 13.8 mph - N/A   Clear
8:15 PM 60.8 °F 21.2 °F 22% 30.15 in 10.0 mi NE 13.8 mph - N/A   Clear
8:35 PM 60.8 °F 21.2 °F 22% 30.15 in 10.0 mi NE 15.0 mph - N/A   Clear
8:55 PM 60.8 °F 21.2 °F 22% 30.15 in 10.0 mi NE 16.1 mph 19.6 mph N/A   Clear
9:15 PM 59.0 °F 21.2 °F 23% 30.15 in 10.0 mi NE 13.8 mph - N/A   Clear
9:35 PM 60.8 °F 21.2 °F 22% 30.16 in 10.0 mi ENE 9.2 mph - N/A   Clear
9:55 PM 59.0 °F 21.2 °F 23% 30.17 in 10.0 mi NE 11.5 mph - N/A   Clear
10:15 PM 60.8 °F 19.4 °F 20% 30.17 in 10.0 mi NE 13.8 mph - N/A   Clear
10:35 PM 60.8 °F 19.4 °F 20% 30.17 in 10.0 mi NE 10.4 mph 16.1 mph N/A   Clear
10:55 PM 59.0 °F 19.4 °F 22% 30.17 in 10.0 mi NE 11.5 mph - N/A   Clear
11:35 PM 59.0 °F 19.4 °F 22% 30.18 in 10.0 mi ENE 8.1 mph 16.1 mph N/A   Clear
11:55 PM 55.4 °F 19.4 °F 25% 30.18 in 10.0 mi NNE 10.4 mph - N/A   Clear